"Pseudo-MPEC" for C25CC52

Created 2020 Feb 19 13:07:06 UT using Find_Orb

Click here for an explanation of pseudo-MPECs

 
 Astrometry: 
     C25CC52  C2020 02 14.52415 13 04 17.06 +21 08 04.2    ~2EDM 20.6 GVNEOCPG96
     C25CC52  C2020 02 14.52947 13 04 16.41 +21 07 42.4    ~2EDM 20.3 GVNEOCPG96
     C25CC52  C2020 02 14.53487 13 04 15.63 +21 07 18.0    ~2EDM 20.9 GVNEOCPG96

Station data:
(G96) Mt. Lemmon Survey  (N32.442754 W110.788720)  US/Arizona.  Observers T.
   A. Pruyne, B. M. Africano, E. J. Christensen, G. A. Farneth, D. C. Fuls,
   A. R. Gibbs, A. D. Grauer, H. Gröller, J. A. Johnson, R. A. Kowalski, S.
   M. Larson, G. J. Leonard, D. Rankin, R. L. Seaman, F. C. Shelly. 1.5-m
   reflector + 10K CCD.

Orbital elements:  C25CC52
   Perihelion 2020 Feb 17.918453 +/- 41.2 TT = 22:02:34 (JD 2458897.418453)
Epoch 2020 Feb 15.0 TT = JDT 2458894.5   Earth MOID: 0.2221   AutoNEOCP
M 358.94761401 +/- 40               (J2000 ecliptic)
n   0.36059717 +/- 0.407            Peri.  169.88399 +/- 70
a   1.95488480 +/- 1.47             Node   344.98051 +/- 37
e   0.3812487 +/- 0.258             Incl.   28.15819 +/- 20
P   2.73/998.33d           H 21.7   G  0.15   U 12.1  SR
q 1.20958748 +/- 0.35    Q 2.70018213 +/- 28.3
From 3 observations 2020 Feb. 14 (15.4 min); mean residual 0".47
Residuals in arcseconds: 
200214 G96  .28-  .38-    200214 G96  .56+  .75+    200214 G96  .28-  .37-    

Ephemerides (geocentric):
Date (UTC) HH   RA              Dec         delta   r     elong  mag " sig PA
---- -- -- --  -------------   -----------  ------ ------ -----  --- ---- ---
2020 02 19 13  12 52 18.799   +14 33 02.59  .27202 1.2097 140.1 20.6  66d 166
2020 02 19 14  12 52 11.983   +14 29 26.81  .27183 1.2097 140.1 20.6  66d 166
2020 02 19 15  12 52 05.153   +14 25 50.71  .27164 1.2097 140.2 20.6  66d 166
2020 02 19 16  12 51 58.309   +14 22 14.31  .27146 1.2097 140.2 20.6  66d 167
2020 02 19 17  12 51 51.451   +14 18 37.59  .27127 1.2097 140.3 20.6  66d 167
2020 02 19 18  12 51 44.579   +14 15 00.56  .27108 1.2097 140.4 20.6  66d 167
2020 02 19 19  12 51 37.693   +14 11 23.22  .27089 1.2097 140.4 20.6  66d 167
2020 02 19 20  12 51 30.794   +14 07 45.57  .27070 1.2097 140.5 20.6  66d 167
2020 02 19 21  12 51 23.880   +14 04 07.61  .27052 1.2097 140.6 20.6  66d 167
2020 02 19 22  12 51 16.952   +14 00 29.34  .27033 1.2097 140.6 20.6  66d 167
2020 02 19 23  12 51 10.011   +13 56 50.76  .27015 1.2097 140.7 20.6  66d 167
2020 02 20 00  12 51 03.055   +13 53 11.87  .26996 1.2098 140.8 20.6  66d 166
2020 02 20 01  12 50 56.086   +13 49 32.67  .26978 1.2098 140.8 20.6  66d 166
2020 02 20 02  12 50 49.103   +13 45 53.16  .26959 1.2098 140.9 20.6  66d 166
2020 02 20 03  12 50 42.106   +13 42 13.35  .26941 1.2098 140.9 20.5  66d 166
2020 02 20 04  12 50 35.094   +13 38 33.22  .26923 1.2098 141.0 20.5  67d 166
2020 02 20 05  12 50 28.069   +13 34 52.78  .26904 1.2098 141.1 20.5  67d 166
2020 02 20 06  12 50 21.030   +13 31 12.04  .26886 1.2098 141.1 20.5  67d 166
2020 02 20 07  12 50 13.977   +13 27 30.99  .26868 1.2098 141.2 20.5  67d 166
2020 02 20 08  12 50 06.911   +13 23 49.63  .26850 1.2098 141.3 20.5  67d 166
2020 02 20 09  12 49 59.830   +13 20 07.96  .26832 1.2098 141.3 20.5  67d 166
2020 02 20 10  12 49 52.735   +13 16 25.99  .26814 1.2098 141.4 20.5  68d 166
2020 02 20 11  12 49 45.627   +13 12 43.71  .26796 1.2098 141.5 20.5  68d 166
2020 02 20 12  12 49 38.504   +13 09 01.12  .26778 1.2098 141.5 20.5  68d 166
2020 02 20 13  12 49 31.368   +13 05 18.22  .26760 1.2099 141.6 20.5  68d 166
2020 02 20 14  12 49 24.218   +13 01 35.02  .26742 1.2099 141.7 20.5  68d 166
2020 02 20 15  12 49 17.054   +12 57 51.51  .26725 1.2099 141.7 20.5  69d 166
2020 02 20 16  12 49 09.876   +12 54 07.70  .26707 1.2099 141.8 20.5  69d 166
2020 02 20 17  12 49 02.684   +12 50 23.58  .26689 1.2099 141.8 20.5  69d 166
2020 02 20 18  12 48 55.478   +12 46 39.16  .26671 1.2099 141.9 20.5  69d 166
2020 02 20 19  12 48 48.259   +12 42 54.43  .26654 1.2099 142.0 20.5  69d 166
2020 02 20 20  12 48 41.025   +12 39 09.40  .26636 1.2099 142.0 20.5  69d 166
2020 02 20 21  12 48 33.778   +12 35 24.06  .26619 1.2099 142.1 20.5  69d 166
2020 02 20 22  12 48 26.517   +12 31 38.42  .26601 1.2099 142.2 20.5  69d 166
2020 02 20 23  12 48 19.242   +12 27 52.48  .26584 1.2099 142.2 20.5  69d 166
2020 02 21 00  12 48 11.953   +12 24 06.23  .26567 1.2100 142.3 20.5  69d 166
2020 02 21 01  12 48 04.650   +12 20 19.68  .26550 1.2100 142.4 20.5  70d 166
2020 02 21 02  12 47 57.334   +12 16 32.83  .26532 1.2100 142.4 20.5  70d 166
2020 02 21 03  12 47 50.004   +12 12 45.68  .26515 1.2100 142.5 20.5  70d 166
2020 02 21 04  12 47 42.659   +12 08 58.22  .26498 1.2100 142.6 20.5  70d 166
2020 02 21 05  12 47 35.302   +12 05 10.47  .26481 1.2100 142.6 20.5  70d 166
2020 02 21 06  12 47 27.930   +12 01 22.41  .26464 1.2100 142.7 20.5  70d 166
2020 02 21 07  12 47 20.544   +11 57 34.05  .26447 1.2100 142.8 20.5  70d 166
2020 02 21 08  12 47 13.145   +11 53 45.40  .26430 1.2100 142.8 20.5  71d 166
2020 02 21 09  12 47 05.732   +11 49 56.44  .26413 1.2100 142.9 20.5  71d 166
2020 02 21 10  12 46 58.305   +11 46 07.19  .26396 1.2101 143.0 20.5  71d 166
2020 02 21 11  12 46 50.864   +11 42 17.63  .26380 1.2101 143.0 20.5  71d 166
2020 02 21 12  12 46 43.410   +11 38 27.78  .26363 1.2101 143.1 20.5  71d 166